Location: Gilevgi
(36.8751°N, 30.0581°E)
Time: 04:45:48
(UTC+00:00)

Okean 1-7 Rocket - Pass Details

Date: 22 March 2026
Orbit: 609 x 643 km, 82.5° (Epoch: 15 April)

Event Time Altitude Azimuth Distance (km) Brightness Sun altitude
Rises 02:37:12 0° 355° (N) 2,906 7.1 -17.4°
Reaches altitude 10° 02:39:28 10° 358° (N) 1,990 6.3 -16.9°
Maximum altitude 02:43:51 69° 82° (E) 660 3.9 -16.1°
Drops below altitude 10° 02:48:10 10° 166° (SSE) 1,960 6.1 -15.2°
Sets 02:50:23 0° 169° (SSE) 2,857 7.0 -14.8°
